(297969) = 2002 JB23

Discovered at Socorro on 2002-05-08 by LINEAR.

Orbit

Orbit type: Main Belt

Note: WebGL enabled browser required.

epoch2023-09-13.0
epoch JD2460200.5
perihelion date2022-09-26.86478
perihelion JD2459849.36478
argument of perihelion (°)41.57356
ascending node (°)200.25427
inclination (°)5.96428
eccentricity0.2437730
perihelion distance (AU)1.9216679
Tisserand w.r.t. Jupiter3.4
ΔV w.r.t. Earth (km/sec)8.9
semimajor axis (AU)2.5411258
mean anomaly (°)85.43562
mean daily motion (°/day)0.24331260
aphelion distance (AU)3.161
period (years)4.05
P-vector [x]-0.47336619
P-vector [y]-0.83312611
P-vector [z]-0.28605127
Q-vector [x]0.88013095
Q-vector [y]-0.46059934
Q-vector [z]-0.11496855
absolute magnitude17.38
phase slope0.15
uncertainty0
referenceMPEC 2024-A65
observations used295
oppositions12
arc length (days)7843
first opposition used2002
last opposition used2023
residual rms (arc-secs)0.77
perturbers coarse indicatorM-v
perturbers precise indicator003Ek
first observation date used2002-04-13.0
last observation date used2023-10-03.0
computer nameMPCLINUX
JD of orbit computation2456789.406480
perihelion JD uncertainty (days)3.8702E-04
argument of perihelion uncertainty (°)1.0265E-04
ascending node uncertainty (°)3.0113E-05
inclination uncertainty (°)1.3020E-05
eccentricity uncertainty 3.3505E-07
perihelion distance uncertainty (AU)8.7480E-07
Minimum Orbit Intersection Distances (in AU)
for orbit epoch: 2460200.5, reference: E2023-T15
Mercury1.46163
Venus1.19835
Earth0.91338
Mars0.37553
Jupiter1.85859
Saturn5.93176
Uranus15.8982
Neptune26.7237

Observations

303 total observations over interval: 2002 04 13.27950 – 2023 10 03.385635
These data are available for download (format description).

Date (UT) J2000 RA J2000 Dec Magn Location Ref
2002 04 13.27950 14 36 21.54 -12 49 34.4 19.2   644 – Palomar Mountain/NEAT MPS 57632
2002 04 13.34882 14 36 19.17 -12 49 00.8 19.2   644 – Palomar Mountain/NEAT MPS 57632
2002 04 13.41110 14 36 17.05 -12 48 30.3 19.2   644 – Palomar Mountain/NEAT MPS 57632
2002 04 14.46165 14 35 43.49 -12 39 54.0 19.8   644 – Palomar Mountain/NEAT MPS 57632
2002 04 14.47217 14 35 43.10 -12 39 48.9 19.9   644 – Palomar Mountain/NEAT MPS 57632
2002 04 14.48367 14 35 42.71 -12 39 43.1 19.7   644 – Palomar Mountain/NEAT MPS 57632
2002 04 17.33745 14 34 05.27 -12 15 44.3 19.6   704 – Lincoln Laboratory ETS, New Mexico MPS 57632
2002 04 17.35131 14 34 04.79 -12 15 37.3 20.2   704 – Lincoln Laboratory ETS, New Mexico MPS 57632
2002 04 17.36517 14 34 04.14 -12 15 30.2 19.1   704 – Lincoln Laboratory ETS, New Mexico MPS 57632
2002 04 17.37897 14 34 03.63 -12 15 22.7 19.4   704 – Lincoln Laboratory ETS, New Mexico MPS 57632
2002 05 02.26594 14 23 57.12 -10 03 28.0 18.9 R 699 – Lowell Observatory-LONEOS MPS 55306
2002 05 02.27953 14 23 56.50 -10 03 21.3   699 – Lowell Observatory-LONEOS MPS 55306
2002 05 02.29310 14 23 55.86 -10 03 13.7   699 – Lowell Observatory-LONEOS MPS 55306
2002 05 02.30668 14 23 55.22 -10 03 07.1   699 – Lowell Observatory-LONEOS MPS 55306
2002 05 08.26844 14 19 48.06 -09 12 33.7 18.7   704 – Lincoln Laboratory ETS, New Mexico MPS 55306
2002 05 08.28039 14 19 47.54 -09 12 27.6 19.1   704 – Lincoln Laboratory ETS, New Mexico MPS 55306
2002 05 08.29264 14 19 47.11 -09 12 22.3 18.7   704 – Lincoln Laboratory ETS, New Mexico MPS 55306
2002 05 08.30461 14 19 46.54 -09 12 15.6 19.0   704 – Lincoln Laboratory ETS, New Mexico MPS 55306
2002 05 08.31655 14 19 46.10 -09 12 10.2 18.9   704 – Lincoln Laboratory ETS, New Mexico MPS 55306
2002 05 10.22421 14 18 31.80 -08 56 55.6 18.7   704 – Lincoln Laboratory ETS, New Mexico MPS 55306
2002 05 10.23896 14 18 31.18 -08 56 48.6 18.7   704 – Lincoln Laboratory ETS, New Mexico MPS 55306
2002 05 10.26855 14 18 29.99 -08 56 34.3 18.8   704 – Lincoln Laboratory ETS, New Mexico MPS 55306
2002 05 10.28351 14 18 29.30 -08 56 27.4 18.9   704 – Lincoln Laboratory ETS, New Mexico MPS 55306
2002 05 19.23892 14 13 31.84 -07 53 43.9 19.5   644 – Palomar Mountain/NEAT MPS 55306
2002 05 19.25979 14 13 31.19 -07 53 36.5 19.5   644 – Palomar Mountain/NEAT MPS 55306
2002 05 19.28072 14 13 30.57 -07 53 28.8 19.7   644 – Palomar Mountain/NEAT MPS 55306
2006 03 25.37551 13 53 21.12 -12 09 00.7 19.5 V G96 – Mt. Lemmon Survey MPS 167006
2006 03 25.38907 13 53 20.76 -12 08 55.1 19.9 V G96 – Mt. Lemmon Survey MPS 167006
2006 03 25.40306 13 53 20.47 -12 08 49.9 19.4 V G96 – Mt. Lemmon Survey MPS 167006
2006 03 25.41697 13 53 20.14 -12 08 44.4 19.4 V G96 – Mt. Lemmon Survey MPS 167006
2006 03 26.28935 13 53 01.63 -12 03 03.9 20.2 V 691 – Steward Observatory, Kitt Peak-Spacewatch MPS 167006
2006 03 26.30669 13 53 01.19 -12 02 57.1 20.1 V 691 – Steward Observatory, Kitt Peak-Spacewatch MPS 167006
2006 03 26.32491 13 53 00.73 -12 02 50.2 19.8 V 691 – Steward Observatory, Kitt Peak-Spacewatch MPS 167006
2006 04 18.21284 13 39 16.80 -08 49 55.8 18.5 R 699 – Lowell Observatory-LONEOS MPS 169133
2006 04 18.23476 13 39 15.79 -08 49 43.3   699 – Lowell Observatory-LONEOS MPS 169133
2006 04 18.25670 13 39 14.82 -08 49 32.0   699 – Lowell Observatory-LONEOS MPS 169133
2006 04 18.27862 13 39 13.76 -08 49 18.6   699 – Lowell Observatory-LONEOS MPS 169133
2006 04 18.40317 13 39 08.05 -08 48 07.7 19.1 R 644 – Palomar Mountain/NEAT MPS 169133
2006 04 18.42574 13 39 06.98 -08 47 55.1 19.3 R 644 – Palomar Mountain/NEAT MPS 169133
2006 04 18.44935 13 39 05.92 -08 47 41.2 18.9 R 644 – Palomar Mountain/NEAT MPS 169133
2006 04 19.31174 13 38 28.86 -08 39 32.9 18.8 V G96 – Mt. Lemmon Survey MPS 169133
2006 04 19.32231 13 38 28.35 -08 39 26.6 18.9 V G96 – Mt. Lemmon Survey MPS 169133
2006 04 19.33255 13 38 27.85 -08 39 20.7 18.9 V G96 – Mt. Lemmon Survey MPS 169133
2006 04 19.34296 13 38 27.38 -08 39 14.9 19.0 V G96 – Mt. Lemmon Survey MPS 169133
2006 05 06.22104 13 27 33.73 -06 11 04.5 19.4 V G96 – Mt. Lemmon Survey MPS 171368
2006 05 06.22748 13 27 33.55 -06 11 01.7 19.3 V G96 – Mt. Lemmon Survey MPS 171368
2006 05 06.23380 13 27 33.33 -06 10 58.7 19.4 V G96 – Mt. Lemmon Survey MPS 171368
2007 09 13.42616 01 12 18.14 +09 25 33.2 21.5 V G96 – Mt. Lemmon Survey MPS 216059
2007 09 13.43219 01 12 17.92 +09 25 31.1 21.6 V G96 – Mt. Lemmon Survey MPS 216059
2007 09 13.43812 01 12 17.64 +09 25 29.1 21.8 V G96 – Mt. Lemmon Survey MPS 216059
2007 09 13.44410 01 12 17.38 +09 25 27.9 21.6 V G96 – Mt. Lemmon Survey MPS 216059
2007 09 14.46317 01 11 36.99 +09 19 48.4 20.7 V G96 – Mt. Lemmon Survey MPS 286861
2007 09 14.47123 01 11 36.67 +09 19 45.8 20.9 V G96 – Mt. Lemmon Survey MPS 286861
2007 09 14.47924 01 11 36.31 +09 19 43.0 21.9 V G96 – Mt. Lemmon Survey MPS 286861
2007 10 10.29928 00 50 40.48 +06 24 10.8 21.5 V G96 – Mt. Lemmon Survey MPS 218511
2007 10 10.30635 00 50 40.09 +06 24 08.1 21.3 V G96 – Mt. Lemmon Survey MPS 218511
2007 10 10.31341 00 50 39.69 +06 24 04.9 21.0 V G96 – Mt. Lemmon Survey MPS 218511
2007 10 10.32049 00 50 39.33 +06 24 01.6 20.5 V G96 – Mt. Lemmon Survey MPS 218511
2007 10 19.26991 00 43 16.89 +05 20 01.4 21.8 V G96 – Mt. Lemmon Survey MPS 220290
2007 10 19.27648 00 43 16.57 +05 19 58.6 21.5 V G96 – Mt. Lemmon Survey MPS 220290
2007 10 19.28314 00 43 16.28 +05 19 56.0 21.3 V G96 – Mt. Lemmon Survey MPS 220290
2007 10 19.28976 00 43 15.99 +05 19 52.6 21.2 V G96 – Mt. Lemmon Survey MPS 220290
2010 03 05.42308 13 13 42.73 -10 50 00.0   691 – Steward Observatory, Kitt Peak-Spacewatch MPS 316673
2010 03 05.44073 13 13 42.54 -10 49 56.8   691 – Steward Observatory, Kitt Peak-Spacewatch MPS 316673
2010 03 05.45840 13 13 42.37 -10 49 52.6   691 – Steward Observatory, Kitt Peak-Spacewatch MPS 316673
2010 03 15.32518 13 11 02.58 -10 03 33.4 20.0 V 691 – Steward Observatory, Kitt Peak-Spacewatch MPS 317840
2010 03 15.34288 13 11 02.10 -10 03 27.5 20.2 V 691 – Steward Observatory, Kitt Peak-Spacewatch MPS 317840
2010 03 15.36403 13 11 01.53 -10 03 19.7 20.0 V 691 – Steward Observatory, Kitt Peak-Spacewatch MPS 317840
2010 03 18.30568 13 09 42.90 -09 44 55.3 20.0 V 691 – Steward Observatory, Kitt Peak-Spacewatch MPS 317840
2010 03 18.32335 13 09 42.36 -09 44 47.9 19.8 V 691 – Steward Observatory, Kitt Peak-Spacewatch MPS 317840
2010 03 18.34103 13 09 41.79 -09 44 41.1 20.0 V 691 – Steward Observatory, Kitt Peak-Spacewatch MPS 317840
2010 03 21.27336 13 08 10.89 -09 24 22.6 20.1 V 691 – Steward Observatory, Kitt Peak-Spacewatch MPS 319248
2010 03 21.29108 13 08 10.28 -09 24 15.1 19.8 V 691 – Steward Observatory, Kitt Peak-Spacewatch MPS 319248
2010 03 21.30879 13 08 09.63 -09 24 07.9 19.6 V 691 – Steward Observatory, Kitt Peak-Spacewatch MPS 319248
2010 03 21.36361 13 08 07.69 -09 23 43.7 19.9 V G96 – Mt. Lemmon Survey MPS 319248
2010 03 21.37064 13 08 07.44 -09 23 40.4 19.8 V G96 – Mt. Lemmon Survey MPS 319248
2010 03 21.38478 13 08 06.90 -09 23 34.4 19.7 V G96 – Mt. Lemmon Survey MPS 319248
2010 03 21.39622 13 08 06.50 -09 23 29.5 19.6 V G96 – Mt. Lemmon Survey MPS 319249
2010 03 21.40333 13 08 06.25 -09 23 26.2 19.8 V G96 – Mt. Lemmon Survey MPS 319249
2010 03 21.41774 13 08 05.71 -09 23 19.7 19.6 V G96 – Mt. Lemmon Survey MPS 319249
2010 04 02.91060 12 59 52.55 -07 38 55.2 18.7 V J75 – OAM Observatory, La Sagra MPS 320596
2010 04 02.92493 12 59 51.89 -07 38 49.0 18.9 V J75 – OAM Observatory, La Sagra MPS 320596
2010 04 02.93926 12 59 51.25 -07 38 40.5 18.5 V J75 – OAM Observatory, La Sagra MPS 320596
2010 04 03.448180 12 59 28.568 -07 33 55.91 19.16 i F51 – Pan-STARRS 1, Haleakala MPS 337281
2010 04 03.456498 12 59 28.163 -07 33 51.10 18.99 i F51 – Pan-STARRS 1, Haleakala MPS 337281
2010 04 04.26279 12 58 52.42 -07 26 21.0 19.2 V 703 – Catalina Sky Survey MPS 320596
2010 04 04.26907 12 58 52.17 -07 26 17.4 18.8 V 703 – Catalina Sky Survey MPS 320596
2010 04 04.27544 12 58 51.96 -07 26 15.3 18.8 V 703 – Catalina Sky Survey MPS 320596
2010 04 04.28187 12 58 51.70 -07 26 13.5 18.8 V 703 – Catalina Sky Survey MPS 320596
2010 04 05.31468 12 58 05.37 -07 16 30.3 19.0 V G96 – Mt. Lemmon Survey MPS 320596
